Location: Newark
(45.5000°N, 11.4167°E)
Time: 03:04:37
(UTC+00:00)

Transit 2A Rocket - Pass Details

Date: 26 August 2019
Orbit: 594 x 909 km, 66.7° (Epoch: 23 October)

Event Time Altitude Azimuth Distance (km) Brightness Sun altitude
Rises 23:46:28 0° 335° (NNW) 3,083 8.9 -33.8°
Reaches altitude 10° 23:50:55 10° 13° (NNE) 2,077 8.1 -33.7°
Maximum altitude 23:52:04 11° 27° (NNE) 2,003 7.9 -33.7°
Drops below altitude 10° 23:53:12 10° 42° (NE) 2,037 7.8 -33.6°
Sets 23:57:22 0° 80° (E) 2,882 8.2 -33.5°
